Weather History for Pompano Beach, FL

Change the Weather History Date:

Friday, January 11, 2013

  Actual Average Record
Temperature  
Mean Temperature 76 °F -  
Max Temperature 79 °F 76 °F 85 °F (1972)
Min Temperature 73 °F 59 °F 36 °F (1970)
Cooling Degree Days 11    
Growing Degree Days 26 (Base 50)    
Moisture  
Dew Point 68 °F    
Average Humidity 76    
Maximum Humidity 88    
Minimum Humidity 66    
Precipitation  
Precipitation 0.00 in - - ()
Sea Level Pressure  
Sea Level Pressure 30.20 in    
Wind  
Wind Speed 12 mph (ESE)    
Max Wind Speed 15 mph    
Max Gust Speed 22 mph    
Visibility 10 miles    
Events Rain    
Averages and records for this station are not official NWS values.
T = Trace of Precipitation, MM = Missing Value Source: NWS Daily Summary

Daily Weather History Graph

Daily Weather History Graph

Search for Another Location

Airport:

Trip Planner

Search our weather history database for the weather conditions in past years. The results will help you decide how hot, cold, wet, or windy it might be!

Date:

Astronomy

Jan. 11, 2013 Rise Set
Actual Time 7:09 AM EST 5:47 PM EST
Civil Twilight 6:44 AM EST 6:12 PM EST
Nautical Twilight 6:16 AM EST 6:40 PM EST
Astronomical Twilight 5:48 AM EST 7:08 PM EST
Moon 6:45 AM EST (1/11) 5:57 PM EST (1/11)
Length of Visible Light 11h 27m
Length of Day
10h 37m
Waning Crescent, 0% of the Moon is Illuminated
Jan 11
Waning Crescent
Jan 11
New
Jan 18
First Quarter
Jan 26
Full
Feb 3
Last Quarter

Hourly Weather History & Observations

Time (EST) Temp. Dew Point Humidity Pressure Visibility Wind Dir Wind Speed Gust Speed Precip Events Conditions
12:53 AM 75.0 °F 66.9 °F 76% 30.27 in 10.0 mi ESE 9.2 mph - N/A   Clear
1:53 AM 75.0 °F 66.0 °F 73% 30.25 in 10.0 mi ESE 11.5 mph - N/A   Clear
2:53 AM 75.0 °F 66.9 °F 76% 30.23 in 10.0 mi ESE 11.5 mph - N/A   Scattered Clouds
3:53 AM 75.0 °F 69.1 °F 82% 30.20 in 10.0 mi SE 15.0 mph - N/A   Mostly Cloudy
4:53 AM 75.0 °F 70.0 °F 84% 30.19 in 10.0 mi SE 13.8 mph 19.6 mph N/A   Mostly Cloudy
5:53 AM 73.9 °F 66.9 °F 79% 30.19 in 10.0 mi SE 12.7 mph - N/A   Clear
6:53 AM 73.9 °F 66.9 °F 79% 30.20 in 10.0 mi SE 11.5 mph - N/A   Partly Cloudy
7:53 AM 75.0 °F 66.9 °F 76% 30.22 in 10.0 mi SE 13.8 mph - N/A   Mostly Cloudy
8:53 AM 78.1 °F 66.9 °F 68% 30.23 in 10.0 mi ESE 15.0 mph - N/A   Scattered Clouds
9:53 AM 78.1 °F 66.9 °F 68% 30.24 in 10.0 mi SE 11.5 mph - N/A   Scattered Clouds
10:53 AM 75.9 °F 69.1 °F 79% 30.25 in 10.0 mi ESE 8.1 mph - 0.00 in Rain Light Rain
11:53 AM 79.0 °F 69.1 °F 72% 30.23 in 10.0 mi ESE 13.8 mph - 0.00 in   Scattered Clouds
12:53 PM 79.0 °F 68.0 °F 69% 30.21 in 10.0 mi ESE 15.0 mph - N/A   Partly Cloudy
1:53 PM 79.0 °F 66.9 °F 66% 30.19 in 10.0 mi East 11.5 mph - N/A   Scattered Clouds
2:53 PM 78.1 °F 68.0 °F 71% 30.18 in 10.0 mi East 11.5 mph - N/A   Scattered Clouds
3:53 PM 78.1 °F 68.0 °F 71% 30.18 in 10.0 mi East 12.7 mph - N/A   Clear
4:53 PM 75.9 °F 66.9 °F 74% 30.17 in 10.0 mi East 15.0 mph - N/A   Partly Cloudy
5:53 PM 75.0 °F 66.9 °F 76% 30.17 in 10.0 mi East 11.5 mph - N/A   Clear
6:53 PM 75.0 °F 66.9 °F 76% 30.18 in 10.0 mi East 11.5 mph - N/A   Partly Cloudy
7:53 PM 75.0 °F 66.9 °F 76% 30.18 in 10.0 mi East 12.7 mph - N/A   Overcast
8:53 PM 75.9 °F 66.9 °F 74% 30.19 in 10.0 mi East 10.4 mph 21.9 mph N/A   Overcast
9:53 PM 75.0 °F 66.9 °F 76% 30.19 in 10.0 mi East 13.8 mph 19.6 mph N/A   Overcast
10:53 PM 75.0 °F 69.1 °F 82% 30.18 in 10.0 mi East 10.4 mph - N/A   Overcast
11:06 PM 75.2 °F 69.8 °F 83% 30.18 in 10.0 mi East 11.5 mph - N/A   Overcast
11:21 PM 73.4 °F 69.8 °F 88% 30.17 in 10.0 mi East 9.2 mph - 0.00 in Rain Light Rain
11:53 PM 75.0 °F 69.1 °F 82% 30.17 in 10.0 mi ESE 12.7 mph - 0.00 in   Mostly Cloudy